Total_Precipitation_Accumulation
0.00 0.02 0.01 0.00 0.00 0.00 0.01 0.01 0.00 0.00 0.00 0.00 0.01 0.04 0.18 0.23 0.18 0.09 0.08 0.07 0.06 0.03 0.06 0.18 0.26 0.31 0.75 0.55 0.52 0.62 0.94 1.01 0.71 0.44 0.36 0.41 0.49 0.59 0.96 1.04 0.77 1.01 1.26 1.25
0.04 0.03 0.00 0.00 0.00 0.00 0.02 0.03 0.01 0.01 0.01 0.02 0.01 0.00 0.03 0.08 0.02 0.02 0.02 0.06 0.07 0.04 0.15 0.16 0.16 0.18 0.42 0.56 0.60 0.59 0.38 0.40 0.47 0.38 0.23 0.17 0.22 0.36 0.70 1.03 0.82 0.86 0.98 1.06
0.05 0.02 0.00 0.02 0.01 0.01 0.01 0.05 0.03 0.03 0.02 0.00 0.03 0.10 0.26 0.22 0.19 0.18 0.05 0.05 0.11 0.08 0.18 0.19 0.14 0.12 0.16 0.18 0.29 0.51 0.24 0.15 0.22 0.41 0.56 0.53 0.34 0.41 1.14 1.44 1.12 0.90 0.99 1.03
0.20 0.03 0.03 0.03 0.01 0.07 0.06 0.00 0.02 0.02 0.12 0.08 0.09 0.16 0.12 0.15 0.16 0.11 0.04 0.01 0.03 0.07 0.10 0.11 0.08 0.07 0.09 0.13 0.16 0.51 0.35 0.11 0.17 0.26 0.45 0.67 0.70 0.53 0.74 1.22 1.09 0.88 1.17 1.13
0.25 0.03 0.05 0.06 0.03 0.07 0.05 0.00 0.02 0.04 0.12 0.27 0.11 0.50 0.25 0.20 0.21 0.06 0.02 0.01 0.01 0.04 0.12 0.05 0.10 0.20 0.26 0.29 0.22 0.42 0.47 0.40 0.22 0.30 0.51 0.82 0.90 0.89 1.01 1.45 1.74 1.40 1.33 1.41
0.06 0.02 0.13 0.19 0.01 0.02 0.04 0.07 0.10 0.15 0.32 0.79 0.13 0.41 0.50 0.31 0.41 0.28 0.13 0.07 0.04 0.03 0.28 0.21 0.16 0.20 0.24 0.18 0.29 0.29 0.32 0.47 0.39 0.51 0.62 0.68 0.79 0.76 0.98 1.37 2.03 2.35 2.12 1.93
0.13 0.12 0.07 0.15 0.15 0.05 0.10 0.32 0.74 0.81 0.79 0.62 0.09 0.31 0.54 0.51 0.48 0.65 0.57 0.41 0.25 0.20 0.28 0.63 0.12 0.11 0.23 0.19 0.28 0.27 0.24 0.42 0.43 0.50 0.61 0.68 0.86 1.11 1.09 1.16 1.75 2.37 2.99 3.02
0.51 0.50 0.15 0.25 0.36 0.17 0.11 0.46 0.82 0.80 0.35 0.16 0.17 0.51 0.43 0.49 0.47 0.54 0.83 0.71 0.58 0.43 0.45 0.57 0.41 0.27 0.35 0.39 0.36 0.43 0.39 0.57 0.51 0.59 0.79 0.80 0.89 1.10 1.38 1.26 1.41 2.19 2.60 2.84
0.93 0.65 0.26 0.19 0.18 0.25 0.57 0.74 0.30 1.14 0.84 1.02 0.35 0.72 0.60 0.56 0.60 0.50 0.68 0.69 0.60 0.51 0.63 0.57 0.38 0.41 0.47 0.48 0.48 0.47 0.40 0.66 0.64 0.67 0.92 1.05 1.14 1.27 1.25 1.19 1.27 1.79 2.23 2.46
1.40 1.50 0.30 0.22 0.37 0.31 0.60 0.60 1.54 2.84 2.80 1.74 0.66 0.57 1.53 1.51 1.21 1.29 1.02 0.66 0.62 0.56 0.57 0.92 0.54 0.42 0.38 0.63 0.89 0.86 0.57 0.59 0.65 0.78 0.84 0.80 0.94 1.21 1.30 1.31 1.40 1.54 2.08 2.75
1.25 1.78 0.95 0.52 0.65 0.64 0.79 1.39 2.68 3.22 2.35 1.98 1.82 2.11 1.96 2.10 1.62 1.38 0.91 0.56 0.45 0.33 0.50 0.68 0.81 0.60 0.74 0.96 1.00 1.04 1.00 1.11 0.99 0.90 0.87 1.01 1.22 1.61 1.74 1.86 1.91 2.13 2.68 2.96
1.15 1.77 1.36 0.56 0.27 0.31 0.89 1.70 2.84 4.97 4.20 3.28 3.37 3.77 2.34 1.80 1.56 1.02 0.46 0.30 0.27 0.31 0.31 0.44 0.99 1.14 1.10 1.20 1.43 1.32 1.16 1.37 1.32 1.22 1.27 1.76 2.17 2.34 2.27 2.29 2.56 2.56 2.45 2.54
1.15 1.85 1.87 1.19 0.94 0.72 1.38 1.68 2.07 3.00 3.75 3.68 4.10 3.93 2.51 1.60 0.80 0.47 0.47 0.33 0.18 0.20 0.20 0.29 0.50 0.78 1.33 0.87 1.23 1.15 1.12 1.61 1.83 1.90 1.99 2.18 2.36 2.44 2.64 2.68 2.48 2.33 2.61 2.91
1.66 1.27 1.68 1.38 1.07 1.11 1.19 1.01 1.51 2.52 3.05 2.22 2.05 1.72 1.33 0.97 0.50 0.27 0.20 0.16 0.15 0.14 0.23 0.31 0.38 0.47 0.58 0.82 1.47 2.25 1.26 1.63 1.91 1.98 1.79 1.92 2.34 2.44 2.48 2.34 2.07 1.82 1.93 2.07
1.87 1.69 1.29 0.94 0.42 0.52 0.85 0.81 0.81 1.49 1.31 1.72 1.39 0.77 0.75 1.04 0.57 0.25 0.23 0.14 0.16 0.20 0.21 0.31 0.40 0.52 0.56 0.59 0.62 0.89 1.06 1.80 2.28 2.09 1.90 2.19 2.19 2.24 2.25 2.14 1.75 1.49 1.52 1.51
2.03 2.26 1.51 1.59 0.69 0.86 1.02 0.92 0.61 0.85 0.82 0.94 0.54 0.45 0.45 0.69 0.67 0.42 0.34 0.44 0.38 0.34 0.29 0.26 0.32 0.38 0.44 0.56 0.76 0.87 0.87 1.35 1.78 2.05 2.44 2.11 2.42 2.40 1.96 1.99 1.79 1.61 1.54 1.49
2.08 2.91 2.55 2.51 1.16 1.09 1.79 1.09 0.73 0.60 0.39 0.42 0.44 0.30 0.39 0.67 0.77 0.68 0.52 0.62 0.61 0.60 0.73 0.42 0.35 0.36 0.41 0.46 0.39 0.44 0.62 0.80 0.92 1.68 2.65 2.61 2.90 3.86 2.89 2.01 1.99 1.94 2.18 2.05
2.06 2.15 3.00 2.93 2.04 2.84 2.03 0.61 0.54 0.57 0.44 0.23 0.29 0.29 0.48 0.58 0.48 0.64 0.62 0.65 0.51 0.55 0.99 1.10 0.66 0.47 0.43 0.40 0.45 0.39 0.35 0.36 0.44 0.47 1.10 2.20 2.55 3.40 4.27 3.28 2.73 2.83 2.64 2.62
1.87 1.98 3.10 3.31 2.48 2.03 0.65 0.46 0.55 0.92 0.85 0.44 0.43 0.55 0.55 0.41 0.23 0.60 0.64 0.63 0.89 0.74 0.68 0.97 0.81 0.56 0.42 0.45 0.52 0.51 0.35 0.31 0.29 0.31 0.54 0.90 1.50 2.31 2.99 3.71 3.87 3.59 3.48 3.09
1.33 2.05 3.25 3.27 2.76 1.97 0.96 0.43 0.38 0.65 1.56 1.05 0.80 0.55 0.48 0.39 0.51 0.79 0.77 0.64 0.74 1.05 0.88 0.72 0.74 0.57 0.64 0.70 0.58 0.77 0.54 0.43 0.44 0.51 0.59 0.62 0.84 1.15 1.69 2.35 2.71 2.70 2.52 2.65
1.87 2.98 3.38 2.67 2.51 1.30 0.97 0.58 0.31 1.57 1.80 1.23 1.40 0.91 0.80 0.80 0.84 0.93 0.96 0.85 0.69 0.90 1.32 1.01 0.88 0.76 0.76 1.00 0.74 0.79 1.27 1.21 1.18 1.16 1.09 0.99 1.02 1.08 1.20 1.47 1.67 1.74 1.83 1.84
2.01 2.74 2.78 2.58 2.87 1.82 1.14 0.99 1.51 1.96 1.53 1.35 1.33 1.41 1.62 1.52 1.42 1.28 1.05 0.74 0.62 0.57 0.79 1.32 1.24 1.14 0.98 1.07 1.27 1.18 1.39 2.07 1.86 1.58 1.51 1.34 1.14 1.27 1.50 1.66 1.76 1.69 1.69 1.62
2.12 2.02 2.33 2.56 2.65 1.86 1.43 1.74 1.93 1.70 1.51 1.22 1.17 1.23 1.46 1.38 1.19 0.97 0.60 0.40 0.37 0.45 0.48 0.60 1.05 1.25 1.16 1.03 1.23 1.40 1.59 1.73 1.88 1.94 1.86 1.81 1.73 1.81 1.93 2.00 1.99 1.91 1.83 1.61
1.58 1.01 1.50 1.90 1.99 1.39 1.25 1.07 1.15 1.13 1.24 1.06 0.84 0.78 0.66 0.68 0.69 0.64 0.46 0.32 0.25 0.27 0.32 0.37 0.47 0.80 1.13 1.32 1.27 1.16 1.45 1.51 1.51 1.67 1.79 1.90 2.00 2.14 2.13 2.07 2.14 2.03 2.01 1.95
1.52 1.28 1.49 1.69 1.96 1.25 1.34 1.27 1.32 1.06 0.94 0.75 0.54 0.47 0.43 0.46 0.47 0.37 0.37 0.33 0.33 0.33 0.36 0.48 0.57 0.60 0.78 0.82 0.95 1.21 1.42 1.53 1.48 1.49 1.81 1.90 1.77 1.76 1.87 1.97 1.95 1.77 1.97 1.84
1.09 1.54 1.71 2.10 1.80 1.74 1.82 1.43 1.11 0.98 0.85 0.64 0.38 0.27 0.29 0.27 0.27 0.18 0.15 0.13 0.15 0.24 0.24 0.21 0.31 0.52 0.69 0.65 0.63 0.72 0.89 1.19 1.50 1.80 1.91 2.30 2.44 2.14 1.95 1.97 2.20 2.33 2.28 2.25